Location: Hopville
(44.8032°N, 123.1329°W)
Time: 17:26:38
(UTC+00:00)

CZ-4B R/B - Pass Details

Date: 24 January 2021
Orbit: 486 x 651 km, 97.9° (Epoch: 28 February)

Event Time Altitude Azimuth Distance (km) Brightness Sun altitude
Rises 13:02:59 0° 22° (NNE) 2,576 6.5 -27.7°
Reaches altitude 10° 13:05:11 10° 33° (NNE) 1,700 5.7 -27.3°
Maximum altitude 13:08:29 32° 98° (E) 889 4.4 -26.7°
Drops below altitude 10° 13:11:51 10° 163° (SSE) 1,740 5.6 -26.1°
Sets 13:14:09 0° 173° (S) 2,648 6.4 -25.7°
